Page, AZ

9:27 AM MDT on August 22, 2017 (GMT -0600)
Page Municipal

Weather History for KPGA - February, 2014

Change the Weather History Date:

Wednesday, February 26, 2014

  Actual Average Record
Temperature  
Mean Temperature 54 °F -  
Max Temperature 68 °F 55 °F 72 °F (1986)
Min Temperature 41 °F 33 °F 20 °F (1964)
Degree Days  
Heating Degree Days 10    
Growing Degree Days 4 (Base 50)    
Moisture  
Dew Point 17 °F    
Average Humidity 21    
Maximum Humidity 34    
Minimum Humidity 6    
Precipitation  
Precipitation 0.00 in - - ()
Sea Level Pressure  
Sea Level Pressure 29.88 in    
Wind  
Wind Speed 3 mph (ENE)    
Max Wind Speed 8 mph    
Max Gust Speed -    
Visibility 10 miles    
Events      
Averages and records for this station are not official NWS values.
T = Trace of Precipitation, MM = Missing Value Source: NWS Daily Summary

Daily Weather History Graph

Daily Weather History Graph

Search for Another Location

Airport or City:

Trip Planner

Search our weather history database for the weather conditions in past years. The results will help you decide how hot, cold, wet, or windy it might be!

Date:

Astronomy

Feb. 26, 2014 Rise Set
Actual Time 7:00 AM MST 6:17 PM MST
Civil Twilight 6:34 AM MST 6:43 PM MST
Nautical Twilight 6:04 AM MST 7:13 PM MST
Astronomical Twilight 5:34 AM MST 7:43 PM MST
Moon 4:46 AM MST (2/26) 3:38 PM MST (2/26)
Length of Visible Light 12h 08m
Length of Day
11h 16m
Waning Crescent, 9% of the Moon is Illuminated
Feb 26
Waning Crescent
Mar 1
New
Mar 8
First Quarter
Mar 16
Full
Mar 23
Last Quarter

Hourly Weather History & Observations

Time (MST) Temp. Windchill Dew Point Humidity Pressure Visibility Wind Dir Wind Speed Gust Speed Precip Events Conditions
12:53 AM 50.0 °F - 16.0 °F 26% 29.90 in 10.0 mi Calm Calm - N/A   Clear
1:53 AM 48.9 °F - 15.1 °F 26% 29.90 in 10.0 mi Calm Calm - N/A   Clear
2:53 AM 48.9 °F - 15.1 °F 26% 29.90 in 10.0 mi SE 3.5 mph - N/A   Clear
3:53 AM 48.9 °F - 15.1 °F 26% 29.89 in 10.0 mi SE 3.5 mph - N/A   Clear
4:53 AM 46.0 °F 43.9 °F 15.1 °F 29% 29.91 in 10.0 mi SE 4.6 mph - N/A   Clear
5:53 AM 44.1 °F 41.5 °F 15.1 °F 31% 29.93 in 10.0 mi SSE 4.6 mph - N/A   Clear
6:53 AM 42.1 °F 39.2 °F 15.1 °F 34% 29.95 in 10.0 mi SE 4.6 mph - N/A   Clear
7:53 AM 46.9 °F - 16.0 °F 29% 29.96 in 10.0 mi Calm Calm - N/A   Clear
8:53 AM 51.1 °F - 16.0 °F 25% 29.98 in 10.0 mi NE 3.5 mph - N/A   Clear
9:53 AM 53.1 °F - 16.0 °F 23% 29.96 in 10.0 mi NNW 3.5 mph - N/A   Clear
10:53 AM 57.0 °F - 16.0 °F 20% 29.96 in 10.0 mi North 4.6 mph - N/A   Clear
11:53 AM 59.0 °F - 17.1 °F 20% 29.94 in 10.0 mi Variable 3.5 mph - N/A   Clear
12:53 PM 62.1 °F - 18.0 °F 18% 29.91 in 10.0 mi NE 4.6 mph - N/A   Clear
1:53 PM 64.9 °F - 18.0 °F 16% 29.86 in 10.0 mi ENE 3.5 mph - N/A   Clear
2:53 PM 66.0 °F - 17.1 °F 15% 29.82 in 10.0 mi NE 5.8 mph - N/A   Clear
3:53 PM 68.0 °F - 14.0 °F 12% 29.80 in 10.0 mi NE 6.9 mph - N/A   Clear
4:53 PM 66.9 °F - 15.1 °F 14% 29.79 in 10.0 mi NE 4.6 mph - N/A   Clear
5:53 PM 64.0 °F - 16.0 °F 16% 29.79 in 10.0 mi NE 3.5 mph - N/A   Clear
6:53 PM 60.1 °F - 17.1 °F 19% 29.82 in 10.0 mi WNW 3.5 mph - N/A   Scattered Clouds
7:53 PM 57.0 °F - 18.0 °F 22% 29.81 in 8.0 mi SW 3.5 mph - N/A   Partly Cloudy
8:53 PM 57.9 °F - 17.1 °F 20% 29.81 in 10.0 mi SW 4.6 mph - N/A   Mostly Cloudy
9:53 PM 61.0 °F - 19.9 °F 21% 29.82 in 10.0 mi WSW 8.1 mph - N/A   Scattered Clouds
10:53 PM 59.0 °F - 23.0 °F 25% 29.82 in 10.0 mi Variable 6.9 mph - N/A   Clear
11:53 PM 57.9 °F - 27.0 °F 31% 29.81 in 10.0 mi West 6.9 mph - N/A   Clear